sat.trackr.live / text

‹ back to catalog

KUIPER-00550

NORAD 69617 · 2026-140AB

PAYLOAD ACTIVE UNKNOWN

§ Identity

Operator
Country
US
Launch date
2026-06-17
Launch site
FRGUI
Launch vehicle
Mass (kg)
RCS (m²)

External: N2YO · Heavens-Above · Gunter

§ Orbital elements

Epoch: 2026-09-20T04:00:03.000096Z

Period
95.81 min
Inclination
51.8870°
Eccentricity
0.0003540
Mean motion
15.02943342 rev/d
Perigee alt
555.4 km
Apogee alt
560.3 km
Semi-major
6,936.0 km
B*
-1.5983e-3
RAAN
305.4219°
Arg perigee
298.7217°
Mean anomaly
109.3365°
Rev number
193

§ Raw data

KUIPER-005501 69617U 26140AB  26263.16670139 -.00021926  00000+0 -15983-2 0  99932 69617  51.8870 305.4219 0003540 298.7217 109.3365 15.02943342  1935

JSON: /api/v1/satellites/69617 · /tle

For live sub-satellite position, see the globe view (requires WebGL).

§ Visibility from observer

Set your observer location to see the next 7 days of passes ≥ 10°. The values pass through the URL so the page stays shareable.

No JS? Fill the form by hand. The geolocation button needs JavaScript.